Regional Weather Roundup
Issued by NWS Charleston, WV

Home | Current Version | Previous Version | Graphics & Text | Print | Product List | Glossary On
Versions: 1 2 3 4 5 6 7 8 9 10 11 12 13 14 15 16 17 18 19 20 21 22 23 24 25 26 27
000
ASUS41 KRLX 271910
RWRRLX
West Virginia Regional Weather Roundup
National Weather Service Charleston WV
300 PM EDT MON MAR 27 2017

Note: "fair" indicates few or no clouds below 12,000 feet with no
significant weather and/or obstructions to visibility.

WVZ003-272000-
Northern Panhandle of West Virginia

CITY           SKY/WX    TMP DP  RH WIND       PRES   REMARKS
WHEELING       MOSUNNY   68  48  48 W9G18     29.94F
$$

WVZ009-272000-
Northwest West Virginia

CITY           SKY/WX    TMP DP  RH WIND       PRES   REMARKS
PARKERSBURG    CLOUDY    68  54  60 S8        29.98F
$$

WVZ006-272000-
Western West Virginia

CITY           SKY/WX    TMP DP  RH WIND       PRES   REMARKS
HUNTINGTON     CLOUDY    71  56  58 SW7       29.94F
$$

WVZ015-272000-
West Central West Virginia

CITY           SKY/WX    TMP DP  RH WIND       PRES   REMARKS
CHARLESTON     CLOUDY    73  53  49 SW6       29.94F
$$

WVZ022-031-272000-
North Central West Virginia

CITY           SKY/WX    TMP DP  RH WIND       PRES   REMARKS
CLARKSBURG     MOSUNNY   70  53  54 W13G20    29.96F
MORGANTOWN     PTSUNNY   67  51  56 VRB6      29.98F
$$

WVZ025-035-042-045-272000-
Southern West Virginia

CITY           SKY/WX    TMP DP  RH WIND       PRES   REMARKS
BECKLEY        CLOUDY    69  49  48 W7        30.00F
LOGAN          PTSUNNY   68  55  64 W5        29.98F
BLUEFIELD      NOT AVBL
LEWISBURG      CLOUDY    68  47  46 CALM      30.02F
$$

WVZ047-272000-
Northern Mountains of West Virginia

CITY           SKY/WX    TMP DP  RH WIND       PRES   REMARKS
ELKINS         PTSUNNY   69  48  47 NW10      30.00F
$$

WVZ052-272000-
Eastern Panhandle of West Virginia

CITY           SKY/WX    TMP DP  RH WIND       PRES   REMARKS
MARTINSBURG    SUNNY     66  55  67 CALM      29.97F
PETERSBURG     PTSUNNY   73  55  51 SE3       29.95F
$$




USA.gov is the U.S. government's official web portal to all federal, state and local government web resources and services.